Tracking 23611 objects as of 18-Sep-2021
HD Live streaming from Space Station
objects crossing your sky now
Track INSPIRATION-4

STARLINK-1302

Track STARLINK-1302 now!
10-day predictions
STARLINK-1302 is classified as:


NORAD ID: 45375
Int'l Code: 2020-019R
Perigee: 553.9 km
Apogee: 554.8 km
Inclination: 53.1 °
Period: 95.6 minutes
Semi major axis: 6925 km
RCS: Unknown
Launch date: March 18, 2020
Source: United States (US)
Launch site: AIR FORCE EASTERN TEST RANGE (AFETR)
aabbcc
Your satellite tracking list
Your tracking list is empty




NASA's NSSDC Master Catalog

Two Line Element Set (TLE):
1 45375U 20019R   21260.85152871  .00000517  00000-0  53576-4 0  9997
2 45375  53.0548 301.2114 0000638  82.2610 277.8452 15.06403506 83476
Source of the keplerian elements: AFSPC